Retour au catalogue

COSMOS 1275 DEB

ActifPO
NORAD 39965·DEBRIS·🇷🇺 Russia

Lancé Jun 4, 1981 depuis Plesetsk Cosmodrome

Loading…

Prochains Passages (prochaines 24 heures)

TLE

FraisSource: Space-Track

Époque: Sep 14, 2026, 03:09 UTC

1 39965U 81053PB  26257.13148473  .00000520  00000-0  44636-3 0  9995
2 39965  82.9692 185.9821 0045464  88.3180 335.4256 13.84528143618928

Suivez COSMOS 1275 DEB en temps réel avec AllMySat

Download on the App Store